This is the latest recevied weather packets stored in our database for station/object WY7ATH-2. If no packets are shown the sender has not sent any weather packets the latest 1 day(s).
| Time | Temp. | Humidity | Pressure | Rain* | Wind** | Luminosity | Snow |
|---|---|---|---|---|---|---|---|
| 1836274581 | 10° C | - | - | 0 mm | 0 m/s | - | - |
| 1836274428 | 9.44° C | - | - | 0 mm | 0 m/s | - | - |
| 1778044396 | -3.89° C | - | - | 0 mm | 0 m/s | - | - |
| 1778043799 | -3.89° C | - | - | 0 mm | 0 m/s | - | - |
| 1778042005 | -3.33° C | - | - | 0 mm | 0 m/s | - | - |
| 1778040811 | -3.33° C | - | - | 0 mm | 0 m/s | - | - |
| 1778039614 | -3.89° C | - | - | 0 mm | 0 m/s | - | - |
| 1778037226 | -3.89° C | - | - | 0 mm | 0 m/s | - | - |
| 1778034239 | -3.33° C | - | - | 4.83 mm | 0 m/s | - | - |
| 1778030652 | -2.22° C | - | - | 9.91 mm | 0 m/s | - | - |
| 1778028860 | -2.22° C | - | - | 11.18 mm | 0 m/s | - | - |
| 1778028260 | -2.22° C | - | - | 11.18 mm | 0 m/s | - | - |
| 1778027663 | -1.11° C | - | - | 11.18 mm | 0 m/s | - | - |
| 1778026470 | -1.11° C | - | - | 11.18 mm | 0 m/s | - | - |
| 1778025873 | -1.11° C | - | - | 11.18 mm | 0 m/s | - | - |
| 1778022288 | 0.56° C | - | - | 12.7 mm | 0 m/s | - | - |
| 1778018703 | 0° C | - | - | 14.22 mm | 0 m/s | - | - |
| 1778018102 | -0.56° C | - | - | 15.24 mm | 0 m/s | - | - |
| 1778016312 | 0° C | - | - | 15.24 mm | 0 m/s | - | - |
| 1778013323 | 3.33° C | - | - | 15.49 mm | 0 m/s | - | - |
| 1778011547 | 1.67° C | - | - | 15.49 mm | 0 m/s | - | - |
| 1778008544 | -1.11° C | - | - | 16.26 mm | 0 m/s | - | - |
| 1778007948 | -1.67° C | - | - | 16.26 mm | 0 m/s | - | - |
| 1778002567 | -1.67° C | - | - | 14.73 mm | 0 m/s | - | - |
| 1778001376 | -1.67° C | - | - | 14.73 mm | 0 m/s | - | - |
* Rain latest hour (hover to see other rain measurements)
** Current wind speed in m/s (hover to see current wind gust speed)